EDT,Max TemperatureF,Mean TemperatureF,Min TemperatureF,Max Dew PointF,MeanDew PointF,Min DewpointF,Max Humidity, Mean Humidity, Min Humidity, Max Sea Level PressureIn, Mean Sea Level PressureIn, Min Sea Level PressureIn, Max VisibilityMiles, Mean VisibilityMiles, Min VisibilityMiles, Max Wind SpeedMPH, Mean Wind SpeedMPH, Max Gust SpeedMPH,PrecipitationIn, CloudCover, Events, WindDirDegrees
2011-10-1,62,56,49,63,59,45,100,96,82,29.80,29.65,29.61,10,9,2,18,6,24,0.14,8,Rain,3
2011-10-2,63,55,48,59,53,46,100,94,87,29.92,29.84,29.79,10,9,6,16,7,24,0.03,7,Fog-Rain,23
2011-10-3,64,56,48,54,50,44,100,92,50,30.08,29.98,29.91,10,6,0,10,1,,0.07,5,Fog-Rain,181
2011-10-4,60,56,51,55,53,51,100,93,77,30.03,29.98,29.95,10,9,4,18,7,23,0.72,7,Rain,353
2011-10-5,68,53,37,53,44,28,100,76,32,30.27,30.04,29.95,10,8,1,21,5,30,0.00,2,Fog,347
2011-10-6,64,47,30,40,33,26,100,76,24,30.36,30.30,30.25,10,10,8,15,2,21,0.00,0,Fog,340
2011-10-7,65,50,36,44,37,32,99,72,30,30.48,30.43,30.38,10,10,10,7,1,,0.00,1,,182
2011-10-8,78,58,38,59,47,37,100,82,41,30.48,30.42,30.36,10,7,1,5,1,,0.00,0,Rain,63
2011-10-9,85,63,42,63,52,43,100,78,35,30.40,30.33,30.26,10,9,5,10,1,,0.00,0,Fog,257
2011-10-10,84,64,44,59,54,44,98,76,38,30.26,30.20,30.12,10,8,2,10,1,,0.01,0,,341
2011-10-11,72,60,50,57,50,40,100,80,37,30.26,30.20,30.17,10,7,0,7,2,,0.00,1,Fog,62
2011-10-12,61,54,47,54,50,46,100,87,60,30.24,30.12,30.03,10,9,2,9,5,,0.01,6,Rain,50
2011-10-13,62,58,53,59,56,54,100,98,88,30.03,29.90,29.76,10,8,3,13,7,,0.31,8,Rain,20
2011-10-14,70,64,58,70,63,52,100,96,77,29.76,29.54,29.33,10,6,0,14,4,31,1.28,7,Fog-Rain-Thunderstorm,137
2011-10-15,63,56,51,52,44,36,83,65,47,29.68,29.55,29.40,10,10,8,28,12,36,0.02,2,Rain,226
2011-10-16,65,55,46,45,41,36,75,55,38,29.81,29.73,29.63,10,10,10,14,10,21,0.00,5,Rain,212
2011-10-17,64,55,46,48,41,33,80,58,34,29.74,29.66,29.60,10,10,10,18,10,25,0.00,4,Rain,223
2011-10-18,66,54,41,46,41,37,96,70,34,29.93,29.84,29.74,10,10,10,13,5,,0.00,4,,213
2011-10-19,56,51,45,55,51,44,100,92,82,29.94,29.81,29.57,10,8,1,18,6,23,0.15,7,Rain,42
2011-10-20,70,61,52,61,54,42,100,88,56,29.66,29.50,29.41,10,9,4,28,9,34,0.26,7,Rain,81
2011-10-21,62,54,47,44,42,40,80,65,48,29.97,29.83,29.67,10,10,10,14,9,20,0.00,4,,212
2011-10-22,58,49,38,47,42,37,95,75,52,30.10,30.03,29.97,10,10,10,14,4,,0.00,6,Rain,274
2011-10-23,56,44,32,40,34,32,100,95,47,30.16,30.11,30.10,10,3,1,4,0,,0.00,2,,34
2011-10-24,59,44,30,50,35,30,100,95,60,30.16,30.12,29.94,10,4,0,12,1,,0.04,1,Fog-Rain,189
2011-10-25,58,46,35,50,41,33,100,91,41,30.02,29.95,29.92,10,3,0,23,2,34,0.01,2,Fog,251
2011-10-26,50,46,41,45,42,34,93,86,74,30.04,29.89,29.76,10,10,10,7,2,,0.01,8,Rain,36
2011-10-27,46,40,33,45,40,32,100,96,87,29.92,29.76,29.69,10,8,0,14,7,,0.40,8,Rain-Snow,19
2011-10-28,46,36,27,32,29,24,100,86,44,30.27,30.09,29.95,10,6,1,15,2,,0.00,1,,335
2011-10-29,38,34,31,32,31,29,100,92,70,30.27,30.03,29.87,10,4,0,22,8,30,0.94,7,Rain-Snow,19
2011-10-30,44,34,23,31,29,22,100,89,47,30.32,30.04,29.83,10,4,1,22,13,30,0.04,1,Rain,358
2011-10-31,45,32,19,33,24,18,100,85,55,30.43,30.39,30.33,10,10,6,0,0,,0.00,1,Fog,-1